Weather in Skobelevka

Russia / Perm Krai     58°13′55″N   56°17′29″E
temp.,
°C
wind,
m/s
gust,
m/s
humid.,
%
clouds,
%
prec.,
mm/h
press.,
hPa
HPBL,
m
7 march, sun
sun723:00−17wsw239797 0.1 101075
02:00−18wsw129899 0.1 101020
05:00−18sw129899 0.1 101025
08:00−19sw129896 0.1 101020
11:00−14wsw129194 0.1 1009304
14:00−11sw2382100 0.1 1008711
17:00−11sw2384100 0.1 1007727
20:00−15s1295100 0.1 100720
8 march, mon
mon823:00−18s229882 0.1 100820
02:00−18sse229854 0.0 100622
05:00−19se229872 0.1 100557
08:00−17se4996100 0.1 1002277
11:00−14se4994100 0.6 1000471
14:00−10se4890100 0.4 998722
17:00−8ese4993100 0.9 995680
20:00−8ese4995100 1.3 994622
9 march, tue
tue923:00−10s2695100 2.1 995211
02:00−12ssw2297100 0.1 99860
05:00−14wnw2597100 0.2 1000132
08:00−15wsw129799 0.2 100227
11:00−11w119197 0.3 1002319
14:00−9nnw2285100 0.1 1003603
17:00−11n3589100 0.2 1005530
20:00−15n389593 0.1 1007384
10 march, wed
wed1023:00−20n399795 0.1 1010260
02:00−24n389773 0.0 1011237
05:00−28n389660 0.0 1012212
08:00−30n499647 0.0 1013234
11:00−26n489242 0.0 1013322
14:00−21nnw48870 0.0 1013426
17:00−19nnw47830 0.0 1013615
20:00−24nw239422 0.0 101454
11 march, thu
thu1123:00−25wnw229511 0.0 101420
02:00−24w229765 0.0 101372
05:00−24sw369882 0.0 1013176
08:00−22wsw3898100 0.1 1012329
11:00−19wsw3593100 0.4 1012410
14:00−16wsw4691100 0.1 1012472
17:00−14wsw4893100 0.2 1012614
20:00−14wsw4993100 0.1 1013379